Location: Newark
(22.6667°N, 131.7500°E)
Time: 04:03:41
(UTC+00:00)

Envisat - Visible Passes

Search period start: 29 September 2020 00:00
Search period end: 09 October 2020 00:00
Orbit: 764 x 766 km, 98.1° (Epoch: 28 September)

Date Brightness Start Highest point End Pass type
(mag) Time Alt. Az. Time Alt. Az. Time Alt. Az.
30 Sep 6.4 09:55:50 10° WSW 09:57:57 13° W 10:00:05 10° WNW visible
30 Sep 4.9 20:33:00 10° NNE 20:37:39 36° E 20:42:16 10° SSE visible
01 Oct 5.1 09:16:29 10° SSW 09:21:03 34° W 09:25:37 10° NW visible
01 Oct 6.3 19:58:19 10° ENE 20:00:44 13° E 20:03:09 10° SE visible
03 Oct 6.1 09:43:18 10° SW 09:46:33 17° W 09:49:49 10° NW visible
03 Oct 5.4 20:22:01 10° NE 20:26:16 27° E 20:30:30 10° SSE visible
06 Oct 5.8 09:31:12 10° SSW 09:35:08 23° W 09:39:06 10° NW visible
06 Oct 5.9 20:11:10 10° NE 20:14:53 20° E 20:18:33 10° SE visible
08 Oct 6.6 09:59:15 10° WSW 10:00:41 11° W 10:02:06 10° W visible
08 Oct 4.7 20:35:37 10° NNE 20:40:21 40° E 20:45:05 10° SSE visible
